EN

Hourly Weather Dzikowiec

Today, 31 October, Saturday

Time Temperature Precipitation Wind Pressure Humidity
00:00 +8°C° 1.2 mm 2 mps 744 mmHg 91%
01:00 +7°C° 0 mm 2 mps 743 mmHg 93%
02:00 +7°C° 0.1 mm 2 mps 743 mmHg 93%
03:00 +8°C° 0.1 mm 2 mps 744 mmHg 92%
04:00 +8°C° 0.1 mm 2 mps 744 mmHg 92%
05:00 +7°C° 0.1 mm 2 mps 744 mmHg 90%
06:00 +7°C° 0.1 mm 2 mps 745 mmHg 89%
07:00 +7°C° 0 mm 3 mps 746 mmHg 85%
08:00 +7°C° 0 mm 2 mps 746 mmHg 80%
09:00 +8°C° 0 mm 2 mps 747 mmHg 75%
10:00 +9°C° 0 mm 2 mps 747 mmHg 70%
11:00 +10°C° 0 mm 2 mps 747 mmHg 67%
12:00 +10°C° 0 mm 2 mps 747 mmHg 64%
13:00 +12°C° 0 mm 2 mps 748 mmHg 61%
14:00 +10°C° 0 mm 2 mps 748 mmHg 65%
15:00 +9°C° 0 mm 2 mps 748 mmHg 68%
16:00 +9°C° 0 mm 2 mps 748 mmHg 71%
17:00 +9°C° 0 mm 1 mps 748 mmHg 74%
18:00 +8°C° 0 mm 1 mps 748 mmHg 77%
19:00 +8°C° 0 mm 1 mps 748 mmHg 80%
20:00 +7°C° 0 mm 1 mps 749 mmHg 82%
21:00 +7°C° 0 mm 1 mps 749 mmHg 84%
22:00 +6°C° 0 mm 0 mps 749 mmHg 86%
23:00 +5°C° 0 mm 0 mps 749 mmHg 87%

Tomorrow, 1 November, Sunday

Time Temperature Precipitation Wind Pressure Humidity
00:00 +5°C° 0 mm 0 mps 749 mmHg 88%
01:00 +5°C° 0 mm 0 mps 749 mmHg 89%
02:00 +5°C° 0 mm 0 mps 749 mmHg 90%
03:00 +5°C° 0 mm 1 mps 748 mmHg 90%
04:00 +5°C° 0 mm 1 mps 748 mmHg 91%
05:00 +5°C° 0 mm 1 mps 748 mmHg 91%
06:00 +5°C° 0 mm 1 mps 748 mmHg 91%
07:00 +5°C° 0 mm 1 mps 748 mmHg 91%
08:00 +7°C° 0 mm 1 mps 748 mmHg 83%
09:00 +8°C° 0 mm 1 mps 747 mmHg 75%
10:00 +9°C° 0 mm 2 mps 747 mmHg 68%
11:00 +10°C° 0 mm 2 mps 747 mmHg 63%
12:00 +12°C° 0 mm 2 mps 746 mmHg 59%
13:00 +12°C° 0 mm 2 mps 746 mmHg 54%
14:00 +10°C° 0 mm 2 mps 745 mmHg 59%
15:00 +10°C° 0 mm 2 mps 745 mmHg 63%
16:00 +9°C° 0 mm 2 mps 745 mmHg 68%
17:00 +8°C° 0 mm 2 mps 744 mmHg 70%
18:00 +8°C° 0 mm 2 mps 744 mmHg 72%
19:00 +8°C° 0 mm 3 mps 744 mmHg 74%
20:00 +8°C° 0 mm 3 mps 744 mmHg 75%
21:00 +8°C° 0 mm 3 mps 744 mmHg 76%
22:00 +8°C° 0 mm 3 mps 743 mmHg 77%
23:00 +8°C° 0.1 mm 3 mps 743 mmHg 79%

Day after tomorrow, 2 November, Monday

Time Temperature Precipitation Wind Pressure Humidity
00:00 +8°C° 0.1 mm 3 mps 743 mmHg 80%
01:00 +7°C° 0.1 mm 3 mps 743 mmHg 82%
02:00 +8°C° 0.5 mm 3 mps 743 mmHg 85%
03:00 +7°C° 0.5 mm 4 mps 742 mmHg 87%
04:00 +7°C° 0.5 mm 4 mps 742 mmHg 90%
05:00 +7°C° 0.3 mm 4 mps 742 mmHg 90%
06:00 +7°C° 0.3 mm 4 mps 742 mmHg 90%
07:00 +7°C° 0.3 mm 4 mps 742 mmHg 91%
08:00 +8°C° 0.3 mm 4 mps 743 mmHg 91%
09:00 +10°C° 0.3 mm 4 mps 743 mmHg 91%
10:00 +10°C° 0.3 mm 3 mps 743 mmHg 91%
11:00 +11°C° 0 mm 3 mps 743 mmHg 89%
12:00 +12°C° 0 mm 3 mps 743 mmHg 88%
13:00 +13°C° 0 mm 3 mps 743 mmHg 86%
14:00 +13°C° 0.1 mm 3 mps 743 mmHg 88%
15:00 +12°C° 0.1 mm 3 mps 743 mmHg 90%
16:00 +11°C° 0.1 mm 3 mps 743 mmHg 93%
17:00 +11°C° 0 mm 3 mps 744 mmHg 93%
18:00 +11°C° 0 mm 3 mps 744 mmHg 93%
19:00 +11°C° 0 mm 3 mps 744 mmHg 93%
20:00 +11°C° 0.4 mm 3 mps 744 mmHg 93%
21:00 +11°C° 0.4 mm 3 mps 744 mmHg 93%
22:00 +11°C° 0.4 mm 3 mps 744 mmHg 92%
23:00 +11°C° 0.3 mm 3 mps 744 mmHg 93%

3 November, Tuesday

Time Temperature Precipitation Wind Pressure Humidity
00:00 +11°C° 0.3 mm 3 mps 744 mmHg 93%
01:00 +11°C° 0.3 mm 3 mps 744 mmHg 94%
02:00 +11°C° 0 mm 3 mps 744 mmHg 94%
03:00 +11°C° 0 mm 3 mps 745 mmHg 94%
04:00 +12°C° 0 mm 2 mps 745 mmHg 94%
05:00 +13°C° 0.1 mm 2 mps 745 mmHg 95%
06:00 +12°C° 0.1 mm 3 mps 745 mmHg 95%
07:00 +12°C° 0.1 mm 3 mps 745 mmHg 95%
08:00 +13°C° 0 mm 3 mps 746 mmHg 92%
09:00 +14°C° 0 mm 3 mps 746 mmHg 89%
10:00 +16°C° 0 mm 3 mps 746 mmHg 86%
11:00 +16°C° 0 mm 3 mps 746 mmHg 84%
12:00 +17°C° 0 mm 4 mps 746 mmHg 82%
13:00 +18°C° 0 mm 4 mps 746 mmHg 80%
14:00 +17°C° 0.1 mm 3 mps 747 mmHg 83%
15:00 +17°C° 0.1 mm 3 mps 747 mmHg 86%
16:00 +16°C° 0.1 mm 3 mps 747 mmHg 90%
17:00 +14°C° 0.1 mm 3 mps 747 mmHg 87%
18:00 +14°C° 0.1 mm 4 mps 748 mmHg 85%
19:00 +13°C° 0.1 mm 4 mps 748 mmHg 82%
20:00 +13°C° 0 mm 4 mps 748 mmHg 81%
21:00 +12°C° 0 mm 3 mps 749 mmHg 79%
22:00 +12°C° 0 mm 3 mps 749 mmHg 77%
23:00 +11°C° 0 mm 3 mps 749 mmHg 77%

4 November, Wednesday

Time Temperature Precipitation Wind Pressure Humidity
00:00 +11°C° 0 mm 3 mps 750 mmHg 77%
01:00 +11°C° 0 mm 3 mps 750 mmHg 77%
02:00 +10°C° 0 mm 2 mps 750 mmHg 77%
03:00 +10°C° 0 mm 2 mps 750 mmHg 78%
04:00 +10°C° 0 mm 2 mps 750 mmHg 78%
05:00 +10°C° 0 mm 2 mps 751 mmHg 78%
06:00 +10°C° 0 mm 2 mps 751 mmHg 79%
07:00 +9°C° 0 mm 2 mps 752 mmHg 79%
08:00 +9°C° 0.1 mm 2 mps 752 mmHg 80%
09:00 +9°C° 0.1 mm 2 mps 752 mmHg 81%
10:00 +9°C° 0.1 mm 2 mps 752 mmHg 81%
11:00 +10°C° 0.3 mm 1 mps 752 mmHg 83%
12:00 +9°C° 0.3 mm 1 mps 753 mmHg 85%
13:00 +9°C° 0.3 mm 1 mps 753 mmHg 87%
14:00 +9°C° 0.2 mm 1 mps 753 mmHg 88%
15:00 +9°C° 0.2 mm 1 mps 753 mmHg 88%
16:00 +9°C° 0.2 mm 1 mps 753 mmHg 89%
17:00 +9°C° 0.1 mm 1 mps 753 mmHg 89%
18:00 +9°C° 0.1 mm 1 mps 753 mmHg 89%
19:00 +9°C° 0.1 mm 1 mps 754 mmHg 89%
20:00 +9°C° 0 mm 1 mps 754 mmHg 89%
21:00 +9°C° 0 mm 1 mps 754 mmHg 89%
22:00 +9°C° 0 mm 1 mps 754 mmHg 89%
23:00 +9°C° 0 mm 1 mps 754 mmHg 89%

5 November, Thursday

Time Temperature Precipitation Wind Pressure Humidity
00:00 +8°C° 0 mm 1 mps 754 mmHg 89%
01:00 +8°C° 0 mm 1 mps 754 mmHg 89%
02:00 +8°C° 0.1 mm 1 mps 754 mmHg 89%
03:00 +8°C° 0.1 mm 1 mps 755 mmHg 89%
04:00 +7°C° 0.1 mm 2 mps 755 mmHg 89%
05:00 +7°C° 0.4 mm 2 mps 755 mmHg 90%
06:00 +7°C° 0.4 mm 2 mps 755 mmHg 90%
07:00 +7°C° 0.4 mm 2 mps 755 mmHg 91%
08:00 +7°C° 0.1 mm 2 mps 755 mmHg 88%
09:00 +8°C° 0.1 mm 2 mps 756 mmHg 86%
10:00 +8°C° 0.1 mm 2 mps 756 mmHg 84%
11:00 +9°C° 0.1 mm 2 mps 756 mmHg 81%
12:00 +9°C° 0.1 mm 2 mps 756 mmHg 78%
13:00 +9°C° 0.1 mm 2 mps 756 mmHg 75%
14:00 +9°C° 0 mm 2 mps 756 mmHg 77%
15:00 +8°C° 0 mm 2 mps 756 mmHg 79%
16:00 +9°C° 0 mm 1 mps 756 mmHg 82%
17:00 +7°C° 0 mm 2 mps 756 mmHg 82%
18:00 +6°C° 0 mm 2 mps 757 mmHg 83%
19:00 +6°C° 0 mm 2 mps 757 mmHg 84%
20:00 +5°C° 0 mm 2 mps 757 mmHg 85%
21:00 +5°C° 0 mm 2 mps 757 mmHg 85%
22:00 +4°C° 0 mm 2 mps 758 mmHg 85%
23:00 +4°C° 0 mm 2 mps 758 mmHg 87%
Show more